Simultaneous Nadir Overpasses (SNOs) Predictions

Prediction of SNOs between AQUA and NPP Satellite Orbit:

Table of predicted SNOs for the next 14.0 days since TLE Epoch: 2/23/2018
Index Date (AQUA) Time (AQUA) Lat,Lon (AQUA) SZA (AQUA ) Date (NPP) Time (NPP) Lat,Lon (NPP) SZA (NPP ) Distance(km) Time Diff (sec)
1 02/25/2018 22:38:38 -76.28, -99.50 73.87 02/25/2018 22:37:59 -76.27, -99.60 73.81 2.86 39
2 02/25/2018 23:27:40 77.37, 72.09 104.82 02/25/2018 23:28:18 77.38, 72.13 104.78 1.15 38
3 02/28/2018 14:55:01 -76.63, 17.57 75.30 02/28/2018 14:54:44 -76.62, 17.50 75.26 2.21 17
4 02/28/2018 15:44:04 77.66,-170.83 103.45 02/28/2018 15:45:04 77.67,-170.74 103.38 2.17 60
5 03/03/2018 06:22:10 76.26, -35.43 104.13 03/03/2018 06:20:58 76.27, -35.34 104.17 2.39 72
6 03/03/2018 07:11:23 -76.98, 134.69 76.73 03/03/2018 07:11:28 -76.97, 134.66 76.73 1.00 5
7 03/05/2018 22:38:40 76.27, 80.48 103.08 03/05/2018 22:37:51 76.26, 80.41 103.14 2.00 49
8 03/05/2018 23:27:46 -77.31,-108.15 78.18 03/05/2018 23:28:13 -77.31,-108.12 78.21 0.77 27
9 03/08/2018 14:55:01 76.70,-162.18 101.52 03/08/2018 14:54:34 76.70,-162.18 101.54 0.06 27




NCC Satellite Simultaneous Nadir Overpasses (SNOs) Prediction Service
